Location: Mount Wilson Observatory
(34.2257°N, 118.0571°W)
Time: 09:17:01
(UTC-07:00)

ATLAS 3B CENTAUR R/B - Visible Passes

Search period start: 05 September 2015 00:00
Search period end: 15 September 2015 00:00
Orbit: 223 x 7434 km, 28.1° (Epoch: 05 September)

Date Brightness Start Highest point End Pass type
(mag) Time Alt. Az. Time Alt. Az. Time Alt. Az.
05 Sep 3.7 03:33:48 62° S 03:33:48 62° S 03:40:05 10° ESE visible
05 Sep 6.6 19:04:46 10° SSW 19:41:34 31° SSE 20:14:03 12° E visible
05 Sep 5.8 22:14:47 10° SW 23:04:11 58° SSE 23:05:05 58° SSE visible
06 Sep 4.7 01:42:55 10° W 02:21:43 32° ESE 02:24:56 10° ESE visible
06 Sep 3.5 05:12:43 20° W 05:17:50 31° SW 05:22:03 10° SSE visible
06 Sep 6.0 20:50:36 10° SW 21:39:00 50° SSE 21:53:17 39° ESE visible
07 Sep 5.8 00:12:18 10° WSW 01:09:23 - E 00:44:17 49° WSW visible
07 Sep 3.6 04:00:21 52° SW 04:01:23 53° SSW 04:07:28 10° SE visible
07 Sep 6.5 19:29:36 10° SSW 20:11:39 39° SSE 20:41:06 18° E visible
07 Sep 5.7 22:43:02 10° WSW 23:32:03 65° S 23:32:03 65° S visible
08 Sep 4.4 02:13:07 10° W 02:47:44 42° SE 02:51:54 10° ESE visible
08 Sep 4.0 05:38:40 13° W 05:44:08 20° SW 05:47:47 10° S visible
08 Sep 5.9 21:16:53 10° SW 22:07:41 58° SSE 22:19:28 48° ESE visible
09 Sep 5.6 00:41:30 10° WSW 01:34:53 13° E 01:35:27 10° E visible
09 Sep 3.8 04:25:47 40° SW 04:27:32 42° SSW 04:33:16 10° SE visible
09 Sep 6.4 19:54:01 10° SSW 20:39:47 48° SSE 21:06:29 24° E visible
09 Sep 5.7 23:10:26 10° WSW 23:57:20 69° SSW 23:57:20 69° SSW visible
10 Sep 4.2 02:41:42 10° W 03:12:39 46° SE 03:17:22 10° ESE visible
10 Sep 4.3 06:06:07 10° WSW 06:08:52 11° SW 06:10:32 10° SW visible
10 Sep 6.8 18:34:09 10° SSW 19:10:55 36° SE 19:50:13 10° E visible
10 Sep 5.8 21:42:21 10° SW 22:34:41 65° SSE 22:43:55 56° ESE visible
11 Sep 5.4 01:09:25 10° W 01:59:17 17° ESE 02:00:29 10° ESE visible
11 Sep 4.1 04:50:06 30° WSW 04:51:59 31° SW 04:57:24 10° SSE visible
11 Sep 6.2 20:17:44 10° SW 21:06:12 56° SSE 21:30:07 30° E visible
11 Sep 5.8 23:36:49 10° WSW 00:20:52 67° SW 00:20:52 67° SW visible
12 Sep 4.1 03:08:35 10° W 03:36:26 44° SSE 03:41:20 10° SE visible
12 Sep 6.7 18:56:06 10° SSW 19:36:24 45° SSE 20:15:56 11° E visible
12 Sep 5.7 22:06:53 10° WSW 23:00:05 71° SSE 23:06:38 64° SE visible
13 Sep 5.3 01:35:50 10° W 02:22:30 19° ESE 02:24:03 10° ESE visible
13 Sep 4.4 05:13:17 21° WSW 05:14:46 22° SW 05:19:39 10° S visible
13 Sep 6.1 20:40:32 10° SW 21:31:00 63° SSE 21:52:01 37° E visible
14 Sep 5.9 00:02:02 10° W 00:42:40 62° WSW 00:42:40 62° WSW visible
14 Sep 4.2 03:59:03 37° S 03:59:03 37° S 04:03:41 10° SE visible
14 Sep 6.6 19:17:20 10° SSW 20:00:13 53° SSE 20:37:00 16° E visible
